Starlink 31083

operational
NORAD ID: 58670 Int'l Des: 2023-211 Owner: SPXS Country: US Constellation: starlink
LEOCIRCULAR

关于 Starlink 31083

正在加载描述...

实时位置

正在加载3D地球...

即将过境

高度历史

Altitude vs Time

uPlot chart will show altitude changes over time

两行轨道根数

1 58670U 23211D 25261.23256667 -.00000547 00000-0 -10313-4 0 9998
2 58670 43.0033 338.8751 0003531 287.3427 72.7038 15.27565820 96093
Epoch: Sep 18, 2025 • Age: 18 hours

当前状态

高度 493.9 km
速度 7.62 km/s
星下点 -41.71°S, 131.16°W
发射日期 Dec 29, 2023
运行时间 1.7 years
类型 internet

技术详情

分类 Payload
质量 730.00 kg
干质量 700.00 kg
总质量 730.00 kg
长度 0.30 m
直径 4.10 m
跨度 29.00 m
形状 Box + pan
制造商 SPXS
平台类型 Starlink V2M
阶段状态 In Orbit
所有者/国家 SPXS/US

大型星座

Loading constellations...